Flag for Burundi Weather past 2 weeks in Gitega, Burundi

Now
68 °F

Passing clouds.


Feels Like: 68 °F
Forecast: 56 / 76 °F
Wind: 3 mph from Northwest

Location: Kigali Airport

Current Time: Jul 5, 2015 at 11:44:51 PM

Latest Report: Jul 5, 2015 at 11:00 PM


Visibility: N/A

Pressure: 30.21 "Hg (24.84 "Hg at 1679m altitude)

Humidity: 64%

Dew point: 55 °F

Location of GitegaLocation

Historic Weather in Gitega — Graph

°F

Gitega temperature yesterday

Maximum temperature yesterday: 79 °F (at 1:30 PM)
Minimum temperature yesterday: 61 °F (at 4:30 AM)
Average temperature yesterday: 69 °F

Past Weeks' High & Low Weather Summary

 TemperatureHumidityPressure
High84 °F (Jul 5, 4:00 PM)100% (Jun 20, 11:30 PM)30.30 "Hg (Jun 20, 11:30 PM)
Low57 °F (Jul 5, 6:30 AM)37% (Jul 5, 4:00 PM)30.09 "Hg (Jun 30, 3:00 PM)
Average71 °F72%30.20 "Hg
* Reported Jun 20 10:00 PM — Jul 5 10:30 PM, Gitega, Weather by CustomWeather, © 2015

Note: Actual official high and low records may vary slightly from our data, if they occured in-between our weather recording intervals... More about our weather records

Advertising

Gitega weather history for previous 24 hours

 ConditionsComfort  
Time TempWeatherWind HumidityBarometerVisibility
10:30 PM
Sun, Jul 5
68 °FPassing clouds.No wind64%30.21 "HgN/A
10:00 PM70 °FPassing clouds.3 mph60%30.21 "HgN/A
9:30 PM72 °FPassing clouds.5 mph57%30.21 "HgN/A
9:00 PM72 °FPassing clouds.3 mph57%30.21 "HgN/A
8:30 PM73 °FPassing clouds.3 mph53%30.21 "HgN/A
8:00 PM73 °FPassing clouds.5 mph53%30.18 "HgN/A
7:30 PM75 °FPassing clouds.5 mph50%30.18 "HgN/A
7:00 PM77 °FPassing clouds.5 mph47%30.18 "HgN/A
6:30 PM77 °FPassing clouds.6 mph47%30.15 "HgN/A
6:00 PM79 °FThunderstorms. Cloudy.N/A42%30.15 "HgN/A
5:30 PM81 °FPassing clouds.7 mph39%30.15 "HgN/A
5:00 PM82 °FScattered clouds.7 mph37%30.15 "HgN/A
4:30 PM82 °FScattered clouds.10 mph37%30.15 "HgN/A
4:00 PM84 °FScattered clouds.7 mph37%30.15 "HgN/A
3:30 PM82 °FPartly sunny.8 mph40%30.15 "HgN/A
3:00 PM81 °FPartly sunny.No wind45%30.15 "HgN/A
2:30 PM81 °FPartly sunny.8 mph45%30.15 "HgN/A
2:00 PM82 °FPartly sunny.6 mph45%30.18 "HgN/A
1:30 PM81 °FScattered clouds.8 mph45%30.18 "HgN/A
1:00 PM81 °FScattered clouds.7 mph45%30.21 "HgN/A
12:30 PM79 °FScattered clouds.9 mph48%30.21 "HgN/A
12:00 PM77 °FScattered clouds.5 mph54%30.24 "HgN/A
11:30 AM77 °FPassing clouds.5 mph54%30.24 "HgN/A
11:00 AM75 °FPassing clouds.5 mph57%30.24 "HgN/A
10:00 AM73 °FPassing clouds.3 mph61%30.27 "HgN/A
9:30 AM73 °FPassing clouds.5 mph61%30.27 "HgN/A
9:00 AM72 °FPassing clouds.No wind69%30.27 "HgN/A
8:30 AM70 °FClear.No wind73%30.27 "Hg5 mi
8:00 AM66 °FClear.5 mph83%30.24 "Hg5 mi
7:30 AM63 °FClear.6 mph94%30.24 "Hg5 mi
7:00 AM59 °FPassing clouds.No wind100%30.24 "Hg5 mi
6:30 AM57 °FPassing clouds.No wind100%30.24 "Hg5 mi
6:00 AM59 °FPassing clouds.No wind100%30.21 "Hg5 mi
5:30 AM59 °FPassing clouds.No wind100%30.21 "HgN/A
5:00 AM59 °FPassing clouds.No wind100%30.21 "HgN/A
4:30 AM59 °FPassing clouds.No wind100%30.18 "HgN/A
4:00 AM61 °FPassing clouds.5 mph100%30.18 "HgN/A
3:30 AM61 °FPassing clouds.3 mph94%30.18 "HgN/A
3:00 AM61 °FPassing clouds.3 mph100%30.18 "HgN/A
2:30 AM61 °FPassing clouds.3 mph100%30.18 "HgN/A
2:00 AM61 °FPassing clouds.3 mph100%30.18 "HgN/A
1:30 AM63 °FPassing clouds.5 mph94%30.21 "HgN/A
1:00 AM63 °FPartly cloudy.3 mph94%30.21 "HgN/A
12:30 AM63 °FPartly cloudy.3 mph94%30.21 "HgN/A
12:00 AM64 °FPartly cloudy.5 mph88%30.21 "HgN/A
11:30 PM
Sat, Jul 4
64 °FPassing clouds.3 mph88%30.21 "HgN/A
11:00 PM66 °FPassing clouds.3 mph83%30.21 "HgN/A
Weather by CustomWeather, © 2015

See weather overviewHow to use our weather pages